Погода в Исити

Погода в Исити : погода сейчас, прогноз погоды и архив. Всё, что Вы хотите узнать о погоде в Исити!

Хотите узнать прогноз погоды в Исити? Тогда Вам сюда: Погода в Исити

Поиск расширенной информации на нашем сайте:

Другие новости

Новости СМИ2

Главная страница сайта

Новости сайта

03.07.2017

Напоминаем, что на нашем специализированном сайте Метеоцентр.Азия вы можете получить высокодетализированные автоматические прогнозы погоды по пунктам России, СНГ и мира в авиационном формате (включающие направление и скорость ветра, видимость, явления погоды, количество и форму облачности, нижнюю и верхнюю границу облачности).


Погода в Исити - сегодня

Время (UTC), дата Ветер
(°,м/с) 
Видим.   Явления Облачность Т
(°С)
Тd
(°С)
f(%) Тe
(°С)
Pmin
(гПа)
dP
(гПа)
Po
(мм)
O2
(г/м3)
Тmin Tmax R s Состояние
почвы
18 15.10.17 290 (З) 20000 м  слаб. снег  10/0 средняя 
[As op]
-4.6 -7 83 -6    758  311      27     
21 15.10.17 300 (СЗ) 20000 м  {снег}  10/0 средняя 
[Ac As]
-5.5 -7.7 84 -7  1028.6  0.8  759  313           
00 16.10.17 280 (З) 20000 м  слаб. снег  10/3 1000 м средняя 
[Sc|As op]
-5.4 -7.6 84 -7  1030.3  1.7  760  313  -6    0.2  10  равномерный
сухой снег
100% 
03 16.10.17 270 (З) 20000 м  {снег}  10/1 1000 м средняя 
[Sc|Ac As]
-4.6 -8.1 76 -7  1030.3  760  312           
06 16.10.17 270 (З) 20000 м  слаб. снег  10/0 средняя 
[As op]
-2.8 -7.7 69 -4  1030  -0.1  760  310           
09 16.10.17 280 (З) 20000 м  слаб. снег  10/0 средняя 
[As op]
-3.5 -7.9 72 -5  1030.3  0.2  760  311           
12 16.10.17 280 (З) 20000 м  слаб. снег  10/3 1000 м средняя 
[Sc|As op]
-4.8 -9.2 71 -6  1030.5  0.1  760  313    -2.8  0.6     
15 16.10.17 280 (З) 20000 м  слаб. снег  10/0 средняя 
[As op]
-5.3 -8.2 80 -7  1030.2  -0.3  760  313           
18 16.10.17 280 (З) 20000 м  слаб. снег  10/0 средняя 
[As op]
-5.7 -8.7 79 -7  1030.3  760  314           
21 16.10.17 280 (З) 20000 м  слаб. снег  10/0 средняя 
[As op]
-6.3 -9 81 -8  1030  -0.3  760  314           
00 17.10.17 280 (З) 20000 м  слаб. снег  10/4 1000 м средняя 
[Sc|As op]
-6.4 -9.6 78 -6  1029.6  -0.4  759  314  -6.6    0.4  равномерный
сухой снег
100% 
03 17.10.17 270 (З) 20000 м  слаб. снег  10/8 1000 м средняя 
[Sc|As op]
-6 -9.9 74 -9  1029  -0.5  759  314           
06 17.10.17 260 (З) 20000 м  {снег}  9/6 1000 м средняя 
[Sc|Ac trans]
-5.4 -11.4 63 -7  1028.2  -0.8  758  313           
09 17.10.17 340 (С) 20000 м    ясно 
-9.7 -13.3 75 -10  1027.3  -1.1  758  318           
12 17.10.17 тихо ()   20000 м    ясно 
-12.6 -15.3 80 -13  1026.5  -1  757  321    -5.2  0.0     
15 17.10.17 тихо ()   20000 м    ясно 
-15.3 -17.3 85 -15  1025.8  -0.9  756  324           
18 17.10.17 тихо ()   20000 м    ясно 
-17.1 -19 85 -17  1024.2  -1.7  755  326           
21 17.10.17 030 (СВ) 20000 м    ясно 
-16.2 -18.1 85 -16  1022.3  -1.8  754  324           
00 18.10.17 тихо ()   20000 м    1/0 верхняя 
[Ci sp]
-16.2 -18.8 80 -16  1021.4  -0.9  753  324  -17.2      равномерный
сухой снег
100% 
03 18.10.17 080 (В) 20000 м    9/0 верхняя 
[Cs]
-9.2 -13.7 70 -11  1019.4  -1.4  752  315           
06 18.10.17 080 (В) 20000 м    10/0 средняя, верхняя 
[As op|Cs]
-3 -12.2 49 -4  1017.7  -1.4  751  307           
09 18.10.17 270 (З) 20000 м  слаб. снег  10/0 средняя 
[As op]
-4.5 -10.1 65 -8  1018.7  752  309           
12 18.10.17 270 (З) 20000 м  слаб. снег  10/0 средняя 
[As op]
-5.8 -8 84 -7  1019.2  0.4  752  310    -2.4  0.4     
15 18.10.17 310 (СЗ) 20000 м  слаб. снег  10/0 средняя 
[As op]
-6.4 -8.4 86 -8  1019.7  0.4  752  311           
18 18.10.17 280 (З) 20000 м  слаб. снег  10/0 средняя 
[As op]
-5.9 -7.8 86 -6  1020  0.3  752  311           
Время (UTC), дата Ветер
(°,м/с) 
Видим.   Явления Облачность Т
(°С)
Тd
(°С)
f(%) Тe
(°С)
Pmin
(гПа)
dP
(гПа)
Po
(мм)
O2
(г/м3)
Тmin Tmax R s Состояние
почвы

Для получения пояснительной информации подведите курсор к названию столбца.

ПОГОДА в Исити - архив

Всё, что Вы хотите узнать о погоде в Исити - удобно и подробно!

Выберите нужную дату (начиная с 1 января 2015* года) и нажмите кнопку "Найти".
Будут отображены архивные сводки погоды по пункту Исить, начиная с указанной даты.


Отображать данные в формате CSV (для использования в таблицах Excel)


Внимание! Наш архив погоды предназначен исключительно для личного некоммерческого использования в познавательных целях. Если Вам необходимы официальные справки о состоянии погоды (для производственных, юридических, коммерческих и т.п. целей), обращайтесь в органы Росгидромета.

*Примечание: данная дата относится к архиву по метеостанциям СССР (Россия, СНГ, Балтия).
Архив по метеостанциям Зарубежной Европы и Азии (кроме Китая) хранится 10 дней, по другим регионам земного шара (Китай, Африка, Америка, Австралия, Океания) - 1 день.

Исить - район местоположения метеостанции


Название, широта, долгота, высота метеостанции:
Исить 60.8°ш. 125.3°д. 118 м над ур. моря [Российская Федерация]

Дополнительная информация

В oтличие oт бoльшинства пoгoдных сайтoв мы публикуем пoдрoбную метеoинфoрмацию в детальнoм прoфессиoнальнoм фoрмате.

Характеристики температуры и влажнoсти вoздуха измеряются на высoте 2 м в тени вдали oт зданий и деревьев.
Скoрoсть ветра измеряется на высoте 10 м (на урoвне рoста челoвека скoрoсть ветра ниже в 1.5-2 раза). Если метеoстанция нахoдится в гoрoде или в лесу, тo скoрoсть ветра занижена на 2-4 м/с пo сравнению с oткрытым местoм. Скoрoсть ветра над акватoриями крупных рек и oзёр, а также на вершинах хoлмoв на 2-5 м/с выше, чем в oбычных услoвиях.
Атмoсфернoе давление в разных тoчках местнoсти мoжет значительнo oтличаться oт давления на метеoстанции, в зависимoсти oт услoвий рельефа (при пoдъёме на 10 м давление пoнижается примернo на 1 мм рт.ст.).